Temp
71 72 73 74 74 74 74 74 75 75 75 75 75 75 75 75 73 73 73 74 74 74 74 74 74 74 74 74 75 75 76 76 76 75 74 72 69 68 68 68 67 67 67 67 67 66 66 64 63 60 57 55
69 71 72 72 73 73 73 73 74 74 74 74 73 73 72 71 72 72 73 73 74 74 74 73 73 74 74 74 74 74 75 76 76 74 72 69 69 68 68 67 67 67 67 67 66 65 64 63 62 59 57 53
69 68 70 71 71 71 72 72 72 72 72 71 72 71 70 69 69 68 69 70 72 72 71 70 70 72 73 74 74 74 74 75 74 73 70 69 68 68 67 67 66 66 66 66 65 64 63 60 58 57 55 51
69 67 66 68 69 69 70 70 71 71 70 68 67 68 67 66 66 64 66 65 68 68 70 69 67 69 71 73 73 74 74 74 73 72 69 69 68 67 66 67 66 65 65 65 64 63 61 58 56 50 49 49
70 69 65 65 66 67 68 69 69 69 67 64 63 63 62 62 67 66 66 66 68 64 68 64 64 68 70 72 72 72 72 73 73 71 69 68 68 67 66 65 64 64 65 64 63 61 59 55 49 48 48 50
71 71 66 69 68 67 67 65 65 66 67 64 65 61 64 66 66 66 65 66 65 66 65 63 63 65 69 71 69 69 71 72 72 71 68 68 67 66 64 61 48 50 58 61 60 58 55 46 45 46 48 48
70 70 69 70 69 68 65 65 64 66 65 65 66 64 65 64 65 64 65 65 64 64 61 63 62 64 66 68 67 68 69 70 72 72 70 69 68 64 61 50 45 45 44 45 52 50 45 44 44 45 46 47
69 70 70 70 70 69 68 67 66 66 66 65 66 65 65 65 65 64 65 62 60 61 62 63 61 63 65 66 64 65 65 67 69 69 70 68 66 59 51 44 45 45 45 44 43 44 44 44 45 45 45 46
68 69 69 69 69 68 68 68 67 67 67 67 67 66 65 65 64 64 64 63 63 62 62 61 63 63 64 61 58 61 58 60 61 62 59 59 54 48 47 45 44 45 47 46 47 45 44 46 44 44 44 44
68 68 68 68 69 68 68 68 68 67 67 67 67 66 65 64 64 63 62 61 61 61 60 60 60 61 60 58 58 56 57 55 57 56 55 53 51 48 46 46 44 44 47 46 47 46 45 45 45 43 43 44
66 66 68 68 68 68 67 68 67 67 67 67 66 66 65 64 63 63 62 61 60 61 60 60 60 59 58 58 57 56 56 55 55 54 53 52 51 47 46 45 45 44 45 44 45 45 45 44 44 43 44 44
65 65 66 67 66 67 67 66 67 67 68 67 66 65 65 64 65 63 61 61 60 60 60 60 59 58 56 57 55 55 56 55 52 53 52 51 49 48 45 45 44 44 44 43 43 45 44 44 43 43 43 42
64 64 64 66 66 66 65 67 67 68 67 66 66 65 65 64 64 63 62 61 61 59 59 58 57 56 56 55 55 54 55 55 53 51 50 51 50 49 48 44 44 44 44 43 43 46 44 44 43 43 42 42
63 63 63 64 65 66 65 66 67 66 66 66 65 64 64 64 65 63 62 61 59 58 57 56 56 55 55 55 54 54 55 52 53 51 49 49 50 49 46 44 44 44 44 44 44 43 46 44 45 43 43 42
63 62 63 63 64 64 64 65 65 65 66 66 65 65 64 64 64 63 61 60 58 56 56 56 55 55 54 54 54 54 55 53 53 51 51 50 49 49 47 46 44 44 46 44 43 44 44 46 43 43 43 43
62 62 62 62 62 63 63 63 63 64 64 65 65 64 63 63 63 62 62 61 59 57 56 55 55 54 54 54 53 54 53 52 52 51 50 48 48 47 47 46 43 43 45 43 46 42 43 42 43 43 42 43
62 62 61 61 61 62 62 62 62 62 62 63 62 62 62 61 61 61 60 59 59 57 56 56 55 54 54 54 54 54 52 52 50 49 47 47 47 45 45 45 44 43 43 44 44 42 43 42 43 43 42 43
60 60 60 60 60 60 60 61 61 61 61 62 62 62 61 61 61 60 59 59 57 57 56 55 55 55 54 53 53 53 52 51 49 49 47 46 46 47 46 45 44 43 43 42 42 42 42 41 45 43 43 43
58 57 58 58 59 59 60 60 60 60 60 60 61 61 60 60 60 60 59 58 58 57 56 55 54 54 54 53 53 53 52 51 49 49 48 45 47 44 44 43 43 44 45 43 45 45 44 45 44 40 45 43
55 56 55 56 57 59 58 58 59 58 60 59 59 60 60 59 59 60 60 59 58 57 56 56 55 55 53 53 52 52 51 51 49 48 48 47 48 45 43 43 43 41 42 41 44 42 42 43 43 43 42 44
55 55 56 56 56 56 56 56 57 57 57 58 59 57 58 58 58 58 58 57 57 57 56 55 55 53 54 53 53 51 50 50 50 49 48 46 47 49 46 44 43 40 41 41 42 41 40 41 41 43 44 44
55 56 56 56 56 56 56 55 55 55 56 56 55 57 58 56 56 56 57 57 56 56 56 55 55 53 53 53 52 52 50 50 48 48 49 48 46 47 46 45 45 43 40 41 41 40 39 40 40 41 41 44
55 55 56 56 56 56 55 56 55 55 55 55 55 55 55 55 55 55 56 56 56 57 55 55 55 55 54 54 53 53 51 50 48 47 47 49 46 43 45 47 45 45 42 42 40 40 40 39 39 41 40 41
53 54 53 53 54 54 53 53 53 54 53 54 54 54 54 55 55 55 55 56 56 56 55 54 54 55 54 53 53 52 51 50 50 50 48 47 47 45 43 42 42 40 41 37 37 38 39 37 37 39 39 39
50 50 49 50 50 48 50 51 53 52 52 53 53 54 54 54 54 55 54 53 54 54 53 54 52 52 51 51 51 52 52 53 52 53 52 50 47 46 44 42 39 40 42 42 41 37 35 36 36 36 39 40
50 48 46 48 47 48 49 51 51 50 51 52 54 54 54 54 54 54 53 52 52 52 52 52 51 52 51 51 52 52 52 51 50 50 49 49 48 47 48 46 42 42 45 40 39 39 38 36 38 36 37 40
46 47 48 48 47 47 47 46 47 47 46 49 50 50 51 51 52 52 52 51 51 52 51 50 50 50 50 50 50 49 50 50 50 50 50 49 51 47 45 47 43 43 47 41 35 33 37 35 38 38 41 41
46 46 47 47 48 48 48 46 47 49 49 49 50 50 48 47 47 48 48 48 48 48 48 48 48 48 49 50 50 50 49 49 49 49 49 49 50 50 47 47 46 46 47 40 44 39 41 33 33 34 40 41
46 48 47 48 49 49 48 49 48 47 47 45 45 47 46 46 46 47 46 46 46 46 46 45 46 47 48 50 50 50 49 49 49 49 49 50 49 49 51 48 46 46 46 46 50 45 33 34 36 35 32 33
46 45 45 45 44 43 43 42 42 41 40 42 42 41 43 45 44 44 46 45 45 45 44 45 44 44 47 48 49 50 50 50 50 49 49 50 50 49 50 50 47 45 46 47 47 44 42 39 37 36 31 39
44 44 43 42 41 41 40 39 39 40 41 41 42 43 43 43 44 43 43 44 44 44 44 44 43 43 42 43 45 47 49 49 50 50 50 50 49 49 50 48 46 47 47 46 46 45 46 42 36 31 36 39
MSLP
1016.65 1016.81 1016.93 1017.13 1017.29 1017.41 1017.53 1017.61 1017.73 1017.85 1017.93 1018.09 1018.21 1018.33 1018.45 1018.57 1018.81 1018.97 1019.21 1019.33 1019.49 1019.65 1019.77 1019.85 1019.93 1020.05 1020.17 1020.25 1020.29 1020.29 1020.29 1020.41 1020.41 1020.65 1020.81 1021.05 1021.41 1021.57 1021.65 1021.73 1021.73 1021.73 1021.69 1021.65 1021.61 1021.57 1021.53 1021.49 1021.49 1021.49 1021.49 1021.57
1016.57 1016.73 1016.85 1016.97 1017.13 1017.29 1017.41 1017.57 1017.73 1017.81 1017.89 1017.97 1018.09 1018.25 1018.37 1018.49 1018.69 1018.85 1019.05 1019.21 1019.37 1019.49 1019.73 1019.81 1019.89 1020.01 1020.09 1020.21 1020.29 1020.33 1020.33 1020.33 1020.41 1020.69 1021.01 1021.29 1021.49 1021.65 1021.73 1021.81 1021.81 1021.81 1021.77 1021.73 1021.73 1021.69 1021.65 1021.61 1021.61 1021.61 1021.61 1021.69
1016.53 1016.61 1016.77 1016.89 1017.01 1017.17 1017.29 1017.45 1017.65 1017.77 1017.85 1018.01 1018.09 1018.21 1018.33 1018.49 1018.61 1018.77 1018.97 1019.13 1019.21 1019.33 1019.53 1019.73 1019.81 1019.89 1019.97 1020.09 1020.21 1020.25 1020.29 1020.37 1020.53 1020.81 1021.13 1021.33 1021.49 1021.65 1021.77 1021.85 1021.89 1021.89 1021.89 1021.85 1021.85 1021.85 1021.81 1021.85 1021.85 1021.81 1021.81 1021.85
1016.45 1016.57 1016.69 1016.81 1016.97 1017.09 1017.25 1017.37 1017.49 1017.65 1017.81 1017.97 1018.09 1018.21 1018.33 1018.49 1018.65 1018.81 1018.93 1019.09 1019.21 1019.25 1019.41 1019.57 1019.73 1019.85 1019.93 1020.05 1020.13 1020.21 1020.29 1020.41 1020.57 1020.85 1021.17 1021.29 1021.49 1021.65 1021.81 1021.85 1021.93 1021.97 1021.97 1021.97 1021.97 1021.97 1021.97 1022.01 1022.05 1022.05 1022.09 1022.05
1016.41 1016.53 1016.69 1016.85 1016.93 1017.05 1017.21 1017.33 1017.45 1017.57 1017.73 1017.93 1018.09 1018.21 1018.33 1018.49 1018.61 1018.81 1018.97 1019.09 1019.21 1019.29 1019.41 1019.57 1019.69 1019.81 1019.93 1020.01 1020.09 1020.21 1020.29 1020.41 1020.57 1020.81 1021.13 1021.33 1021.45 1021.61 1021.77 1021.89 1021.97 1022.01 1021.97 1022.01 1022.05 1022.05 1022.09 1022.13 1022.21 1022.25 1022.25 1022.21
1016.33 1016.41 1016.69 1016.77 1016.93 1017.05 1017.21 1017.37 1017.49 1017.65 1017.73 1017.93 1018.05 1018.25 1018.41 1018.53 1018.61 1018.77 1018.97 1019.05 1019.17 1019.33 1019.41 1019.57 1019.69 1019.81 1019.93 1020.01 1020.13 1020.21 1020.33 1020.41 1020.53 1020.73 1021.05 1021.29 1021.45 1021.57 1021.77 1021.93 1022.09 1022.13 1022.09 1022.05 1022.09 1022.13 1022.13 1022.25 1022.33 1022.33 1022.33 1022.33
1016.33 1016.37 1016.57 1016.73 1016.89 1017.05 1017.17 1017.33 1017.49 1017.65 1017.81 1017.97 1018.09 1018.29 1018.41 1018.53 1018.69 1018.81 1018.97 1019.09 1019.17 1019.29 1019.45 1019.57 1019.73 1019.85 1019.97 1020.05 1020.17 1020.25 1020.37 1020.45 1020.57 1020.69 1020.89 1021.13 1021.37 1021.61 1021.81 1022.01 1022.09 1022.17 1022.17 1022.09 1022.09 1022.13 1022.21 1022.29 1022.33 1022.41 1022.41 1022.41
1016.21 1016.29 1016.41 1016.61 1016.77 1016.93 1017.09 1017.25 1017.45 1017.61 1017.77 1017.93 1018.09 1018.29 1018.45 1018.57 1018.73 1018.89 1019.05 1019.17 1019.33 1019.41 1019.57 1019.65 1019.77 1019.85 1019.97 1020.09 1020.21 1020.29 1020.45 1020.53 1020.61 1020.73 1020.81 1021.13 1021.41 1021.73 1021.93 1022.05 1022.09 1022.13 1022.09 1022.05 1022.09 1022.13 1022.21 1022.25 1022.33 1022.33 1022.37 1022.45
1016.05 1016.17 1016.37 1016.49 1016.69 1016.85 1017.01 1017.17 1017.33 1017.53 1017.69 1017.85 1018.01 1018.25 1018.45 1018.57 1018.73 1018.93 1019.09 1019.21 1019.41 1019.57 1019.69 1019.81 1019.89 1020.01 1020.13 1020.21 1020.37 1020.41 1020.57 1020.65 1020.73 1020.81 1021.01 1021.25 1021.61 1021.89 1021.97 1022.05 1022.05 1022.09 1022.01 1022.05 1022.09 1022.17 1022.25 1022.29 1022.33 1022.33 1022.41 1022.49
1015.89 1016.17 1016.41 1016.53 1016.61 1016.85 1016.97 1017.09 1017.25 1017.41 1017.57 1017.73 1017.93 1018.13 1018.37 1018.57 1018.77 1018.97 1019.13 1019.29 1019.41 1019.57 1019.69 1019.85 1019.93 1020.01 1020.13 1020.29 1020.45 1020.53 1020.65 1020.77 1020.85 1021.01 1021.13 1021.45 1021.77 1021.93 1022.05 1022.05 1022.13 1022.13 1022.09 1022.09 1022.21 1022.25 1022.37 1022.41 1022.37 1022.41 1022.45 1022.49
1015.97 1016.09 1016.17 1016.33 1016.49 1016.77 1016.97 1017.01 1017.17 1017.33 1017.45 1017.57 1017.77 1018.05 1018.29 1018.57 1018.77 1018.97 1019.17 1019.33 1019.45 1019.53 1019.65 1019.77 1019.85 1020.01 1020.13 1020.29 1020.45 1020.61 1020.73 1020.89 1021.01 1021.09 1021.25 1021.45 1021.73 1021.97 1022.05 1022.13 1022.21 1022.25 1022.33 1022.33 1022.25 1022.33 1022.41 1022.49 1022.45 1022.45 1022.49 1022.53
1015.81 1015.93 1016.13 1016.21 1016.45 1016.61 1016.73 1016.93 1017.05 1017.13 1017.25 1017.45 1017.69 1017.89 1018.17 1018.33 1018.61 1018.89 1019.13 1019.29 1019.41 1019.49 1019.69 1019.77 1019.89 1020.01 1020.17 1020.25 1020.41 1020.61 1020.69 1020.89 1021.13 1021.25 1021.41 1021.53 1021.77 1021.93 1022.13 1022.17 1022.25 1022.33 1022.41 1022.41 1022.41 1022.29 1022.41 1022.45 1022.45 1022.45 1022.49 1022.57
1015.57 1015.81 1016.01 1016.17 1016.37 1016.49 1016.57 1016.77 1016.89 1016.97 1017.17 1017.45 1017.61 1017.77 1018.01 1018.21 1018.45 1018.69 1018.89 1019.13 1019.25 1019.49 1019.65 1019.81 1020.01 1020.17 1020.25 1020.33 1020.45 1020.65 1020.77 1020.89 1021.13 1021.37 1021.53 1021.65 1021.77 1021.93 1022.13 1022.29 1022.29 1022.41 1022.41 1022.45 1022.41 1022.33 1022.37 1022.37 1022.45 1022.45 1022.49 1022.53
1015.53 1015.65 1015.89 1016.01 1016.13 1016.25 1016.53 1016.69 1016.77 1016.93 1017.17 1017.33 1017.57 1017.85 1017.97 1018.09 1018.21 1018.45 1018.69 1018.93 1019.17 1019.37 1019.61 1019.85 1020.05 1020.21 1020.33 1020.45 1020.53 1020.61 1020.73 1020.97 1021.17 1021.37 1021.69 1021.81 1021.85 1021.97 1022.13 1022.29 1022.41 1022.49 1022.37 1022.45 1022.37 1022.41 1022.29 1022.41 1022.45 1022.49 1022.49 1022.53
1015.29 1015.49 1015.69 1015.81 1015.93 1016.17 1016.37 1016.49 1016.73 1016.93 1017.13 1017.29 1017.45 1017.65 1017.85 1018.05 1018.13 1018.33 1018.61 1018.81 1019.05 1019.29 1019.49 1019.77 1019.97 1020.17 1020.37 1020.53 1020.61 1020.69 1020.77 1020.97 1021.09 1021.37 1021.53 1021.69 1021.85 1021.97 1022.17 1022.29 1022.45 1022.53 1022.37 1022.37 1022.37 1022.37 1022.33 1022.41 1022.57 1022.57 1022.65 1022.65
1015.33 1015.45 1015.53 1015.69 1015.93 1016.09 1016.21 1016.45 1016.69 1016.89 1017.05 1017.25 1017.37 1017.49 1017.73 1017.89 1018.05 1018.25 1018.45 1018.65 1018.97 1019.17 1019.45 1019.69 1019.93 1020.09 1020.29 1020.37 1020.53 1020.69 1020.77 1020.97 1021.13 1021.29 1021.53 1021.73 1021.85 1021.97 1022.13 1022.29 1022.45 1022.57 1022.41 1022.33 1022.33 1022.41 1022.33 1022.49 1022.53 1022.57 1022.73 1022.69
1015.13 1015.33 1015.57 1015.73 1015.85 1016.01 1016.17 1016.41 1016.61 1016.85 1017.01 1017.13 1017.25 1017.45 1017.61 1017.77 1017.93 1018.09 1018.29 1018.57 1018.73 1019.01 1019.29 1019.53 1019.77 1020.01 1020.09 1020.21 1020.37 1020.57 1020.77 1021.01 1021.21 1021.45 1021.69 1021.89 1022.05 1022.13 1022.25 1022.37 1022.41 1022.57 1022.57 1022.29 1022.33 1022.45 1022.37 1022.53 1022.49 1022.57 1022.73 1022.77
1015.25 1015.37 1015.53 1015.69 1015.85 1016.01 1016.17 1016.37 1016.57 1016.69 1016.81 1016.97 1017.17 1017.29 1017.49 1017.65 1017.81 1017.97 1018.13 1018.37 1018.69 1018.93 1019.21 1019.41 1019.57 1019.73 1019.97 1020.09 1020.25 1020.45 1020.73 1020.97 1021.21 1021.45 1021.69 1021.89 1022.13 1022.25 1022.33 1022.37 1022.49 1022.57 1022.45 1022.45 1022.45 1022.41 1022.41 1022.49 1022.45 1022.57 1022.61 1022.69
1015.45 1015.53 1015.61 1015.73 1015.89 1016.01 1016.13 1016.33 1016.49 1016.61 1016.77 1016.93 1017.05 1017.21 1017.37 1017.49 1017.61 1017.77 1017.97 1018.17 1018.41 1018.77 1019.01 1019.29 1019.49 1019.69 1019.73 1019.93 1020.17 1020.37 1020.57 1020.77 1021.13 1021.33 1021.57 1021.89 1022.05 1022.41 1022.53 1022.57 1022.61 1022.61 1022.49 1022.45 1022.45 1022.41 1022.49 1022.37 1022.45 1022.57 1022.45 1022.53
1015.57 1015.69 1015.81 1015.89 1015.97 1016.05 1016.21 1016.37 1016.49 1016.65 1016.73 1016.81 1016.93 1017.13 1017.29 1017.41 1017.53 1017.69 1017.85 1018.09 1018.29 1018.57 1018.81 1019.01 1019.21 1019.33 1019.57 1019.81 1020.09 1020.29 1020.57 1020.77 1021.01 1021.21 1021.45 1021.69 1021.81 1022.13 1022.45 1022.65 1022.69 1022.93 1022.69 1022.69 1022.57 1022.61 1022.57 1022.45 1022.49 1022.41 1022.45 1022.37
1015.85 1015.97 1016.05 1016.21 1016.29 1016.41 1016.53 1016.65 1016.73 1016.81 1016.89 1016.97 1017.05 1017.17 1017.29 1017.37 1017.53 1017.69 1017.89 1018.09 1018.25 1018.41 1018.69 1018.89 1019.05 1019.21 1019.37 1019.65 1019.89 1020.21 1020.45 1020.65 1020.81 1021.05 1021.29 1021.61 1021.73 1021.69 1021.89 1022.37 1022.45 1022.73 1022.89 1022.89 1022.85 1022.81 1022.73 1022.65 1022.61 1022.57 1022.49 1022.41
1016.29 1016.33 1016.37 1016.49 1016.65 1016.73 1016.85 1017.05 1017.13 1017.21 1017.25 1017.37 1017.41 1017.37 1017.37 1017.41 1017.57 1017.73 1017.89 1018.09 1018.25 1018.41 1018.57 1018.69 1018.89 1019.21 1019.45 1019.69 1019.89 1020.13 1020.41 1020.49 1020.81 1021.01 1021.17 1021.33 1021.65 1021.69 1021.77 1022.05 1022.13 1022.33 1022.73 1022.93 1022.97 1022.97 1022.89 1022.77 1022.85 1022.69 1022.65 1022.53
1016.53 1016.57 1016.65 1016.81 1016.93 1017.09 1017.33 1017.49 1017.61 1017.57 1017.61 1017.81 1017.77 1017.85 1017.93 1017.97 1017.93 1017.93 1018.05 1018.17 1018.33 1018.49 1018.69 1018.85 1019.05 1019.29 1019.49 1019.65 1019.85 1020.13 1020.41 1020.65 1020.89 1021.09 1021.25 1021.17 1021.53 1021.85 1021.77 1021.69 1021.93 1022.09 1022.49 1022.69 1022.89 1022.93 1022.89 1022.97 1022.81 1022.73 1022.65 1022.65
1016.93 1017.01 1017.17 1017.17 1017.21 1017.33 1017.77 1017.97 1018.01 1018.05 1018.13 1018.13 1018.21 1018.29 1018.17 1018.17 1018.33 1018.41 1018.49 1018.57 1018.61 1018.69 1018.85 1018.97 1019.13 1019.29 1019.53 1019.69 1019.81 1020.09 1020.41 1020.69 1020.85 1020.81 1021.05 1021.17 1021.25 1021.57 1021.93 1022.13 1022.25 1022.49 1022.65 1023.01 1023.05 1023.09 1023.05 1023.01 1022.97 1022.73 1022.73 1022.65
1017.85 1017.57 1017.53 1017.77 1018.01 1018.33 1018.57 1018.49 1018.41 1018.53 1018.57 1018.53 1018.65 1018.57 1018.57 1018.69 1018.81 1018.85 1018.93 1019.01 1019.05 1019.09 1019.17 1019.33 1019.45 1019.53 1019.69 1019.89 1020.09 1020.13 1020.05 1020.01 1020.13 1020.33 1020.57 1020.89 1021.37 1021.49 1021.77 1022.01 1022.37 1022.57 1022.61 1022.57 1022.81 1023.09 1023.05 1022.89 1022.85 1022.81 1022.73 1022.57
1018.49 1018.73 1018.73 1018.69 1018.85 1018.81 1018.81 1018.65 1018.65 1018.85 1018.93 1018.97 1018.93 1018.93 1019.01 1019.09 1019.13 1019.25 1019.41 1019.49 1019.45 1019.53 1019.61 1019.73 1019.85 1019.97 1020.17 1020.25 1020.21 1020.17 1020.33 1020.57 1020.73 1020.89 1021.01 1021.17 1021.33 1021.61 1021.49 1021.45 1022.09 1022.45 1022.53 1022.89 1022.29 1022.49 1022.61 1022.73 1022.61 1022.49 1022.49 1022.25
1019.33 1019.33 1019.21 1019.17 1019.33 1019.09 1019.17 1019.53 1019.49 1019.29 1019.37 1019.25 1019.21 1019.37 1019.53 1019.57 1019.53 1019.53 1019.57 1019.69 1019.81 1019.89 1019.93 1020.01 1020.09 1020.25 1020.37 1020.53 1020.73 1020.77 1020.73 1020.73 1020.73 1020.89 1021.05 1021.17 1021.01 1021.45 1021.85 1021.73 1022.37 1022.45 1021.97 1021.65 1022.73 1023.13 1022.85 1022.33 1022.25 1021.85 1022.05 1021.85
1019.69 1019.57 1019.53 1019.53 1019.69 1019.81 1019.85 1020.09 1019.73 1019.41 1019.33 1019.33 1019.25 1019.45 1019.77 1019.89 1020.01 1020.01 1020.01 1020.01 1020.05 1020.17 1020.29 1020.29 1020.29 1020.37 1020.41 1020.53 1020.69 1020.93 1021.05 1021.13 1021.25 1021.29 1021.25 1021.25 1021.17 1021.17 1021.49 1021.85 1021.89 1022.33 1022.13 1021.93 1022.29 1022.41 1022.53 1022.97 1023.01 1021.29 1020.53 1021.37
1020.09 1019.77 1019.65 1019.73 1019.69 1019.89 1020.01 1020.09 1020.29 1020.17 1020.13 1020.25 1020.21 1020.09 1020.09 1020.29 1020.29 1020.21 1020.29 1020.37 1020.41 1020.41 1020.49 1020.61 1020.61 1020.53 1020.61 1020.61 1020.77 1020.93 1021.05 1021.09 1021.21 1021.41 1021.53 1021.57 1021.61 1021.49 1021.17 1021.53 1021.69 1022.17 1022.49 1022.21 1021.57 1021.17 1022.57 1022.85 1022.61 1021.53 1020.77 1021.85
1020.61 1020.73 1020.73 1020.73 1020.85 1021.13 1021.61 1021.93 1021.93 1022.01 1021.93 1021.41 1021.17 1021.13 1020.97 1020.69 1020.85 1020.85 1020.69 1020.65 1020.65 1020.65 1020.65 1020.65 1020.77 1020.85 1020.85 1020.89 1020.93 1020.97 1021.05 1021.13 1021.21 1021.25 1021.41 1021.49 1021.61 1021.65 1021.57 1021.45 1021.73 1021.89 1022.37 1022.29 1022.09 1021.97 1021.45 1021.41 1020.45 1020.45 1021.53 1021.81
1021.37 1021.41 1021.57 1021.73 1022.13 1022.41 1022.65 1022.85 1023.01 1022.93 1022.65 1022.29 1021.93 1021.53 1021.41 1021.37 1021.25 1021.33 1021.37 1021.37 1021.37 1021.25 1021.13 1020.97 1020.89 1020.97 1021.05 1021.13 1021.21 1021.17 1021.17 1021.13 1021.09 1021.13 1021.21 1021.37 1021.57 1021.65 1021.69 1021.81 1021.85 1021.93 1021.77 1022.21 1022.37 1022.33 1022.05 1022.29 1022.57 1022.25 1021.37 1020.41
Wind_Speed
15 15 15 15 15 14 14 14 14 13 13 12 11 10 9 10 12 11 13 13 14 13 12 12 11 9 8 7 7 7 9 8 7 5 5 7 8 4 3 3 3 4 5 6 6 7 6 7 7 6 6 5
15 15 15 15 15 14 14 13 13 13 12 12 12 10 9 10 12 11 14 13 13 13 12 11 10 10 9 8 7 7 8 8 4 5 7 11 7 5 4 3 3 4 5 6 6 7 7 8 8 7 7 4
12 15 15 15 15 14 14 14 13 13 12 11 10 10 10 11 12 11 11 12 13 12 12 11 10 10 9 9 8 7 6 4 7 5 10 9 8 6 5 4 3 4 5 6 6 7 7 7 7 7 5 4
9 12 14 14 14 14 14 14 13 13 11 11 10 10 11 11 10 9 10 12 11 13 13 11 9 10 8 10 9 8 8 7 7 8 10 9 8 8 6 4 4 4 4 5 6 6 6 7 7 5 3 4
9 10 12 11 13 14 13 13 13 12 12 10 9 8 9 11 9 6 6 9 6 10 9 10 11 10 8 9 8 8 7 9 8 10 9 9 9 8 7 5 4 2 4 5 6 6 5 6 5 3 4 3
7 7 10 9 8 8 10 10 10 9 7 7 5 8 7 6 6 6 5 6 7 7 7 8 11 10 9 9 8 8 8 9 9 10 12 8 8 9 8 6 2 1 2 4 5 5 4 4 4 3 4 3
6 7 7 9 8 7 9 8 8 6 6 4 5 5 5 5 5 5 5 5 6 6 8 8 10 10 9 8 8 7 7 8 9 11 11 9 8 9 8 3 2 1 0 2 4 4 3 3 3 3 4 4
7 7 6 7 7 6 6 7 7 6 6 5 5 5 5 5 4 4 5 5 8 7 6 7 10 11 10 9 8 8 6 7 7 10 10 10 9 7 4 3 2 1 0 2 2 2 2 2 1 3 3 4
8 7 6 6 7 6 6 6 6 6 6 6 6 6 5 5 4 4 4 4 4 5 5 4 5 6 5 4 4 6 4 4 4 5 4 5 6 4 3 3 2 1 2 1 1 0 1 1 2 3 3 3
8 7 6 6 7 6 5 6 6 6 6 6 6 5 6 5 5 5 5 4 5 5 5 5 5 5 5 4 5 3 4 3 4 4 5 6 5 4 3 3 3 1 1 2 0 1 1 0 1 3 3 3
6 7 7 6 6 7 6 5 6 6 6 6 6 6 6 6 5 5 5 5 5 6 5 6 6 6 5 6 6 4 6 5 4 6 5 6 5 4 4 2 1 1 0 1 3 2 1 2 3 3 3 2
7 7 7 7 6 7 7 6 6 6 6 5 6 7 6 6 6 6 6 6 6 6 5 6 5 5 5 5 6 5 6 6 4 4 5 5 4 5 3 4 3 2 2 2 3 3 3 3 3 3 3 3
7 6 7 7 7 8 7 6 6 6 5 5 5 6 7 7 7 6 6 7 6 5 6 5 5 5 5 5 5 5 5 6 5 5 5 5 5 5 4 3 3 2 4 3 3 4 4 3 3 3 3 3
7 7 8 8 8 8 7 7 6 5 5 5 5 5 6 7 7 7 7 7 6 7 6 5 5 5 5 5 5 5 6 5 5 6 5 4 4 5 4 3 3 2 3 4 4 4 4 4 4 3 4 4
8 6 8 8 7 6 7 7 6 5 6 5 5 6 6 6 6 6 6 6 6 6 6 6 6 6 5 5 5 5 5 5 6 5 6 6 6 6 6 4 3 3 4 4 4 3 4 5 3 3 2 3
6 7 7 6 6 6 6 6 6 6 6 6 6 6 7 7 6 6 6 7 7 7 6 6 6 6 6 6 5 5 5 6 5 6 5 4 4 4 4 5 3 3 4 4 4 3 4 3 4 3 3 3
6 5 5 6 6 6 6 6 6 6 6 6 6 6 7 7 7 6 7 7 7 7 7 7 7 6 7 6 6 5 5 5 4 3 4 3 2 3 3 3 4 2 3 4 4 3 4 3 4 3 3 3
4 5 4 4 5 5 6 6 6 7 6 7 6 7 7 7 7 7 6 7 6 6 6 7 7 7 7 6 6 6 6 6 5 5 4 4 3 3 4 4 4 4 4 4 3 4 4 4 5 4 4 4
0 1 3 4 4 5 6 6 6 6 6 5 6 6 6 7 7 8 7 7 8 7 7 7 7 7 7 6 6 6 6 7 6 6 6 5 5 2 2 3 4 4 5 4 5 5 4 6 5 4 5 4
3 3 3 2 3 3 4 5 5 5 6 5 5 6 6 6 6 7 7 7 7 7 7 8 8 8 6 7 6 6 6 6 7 6 6 5 6 6 4 3 4 2 4 4 5 4 4 5 4 6 5 5
6 6 6 5 5 5 5 3 2 1 2 3 5 5 6 5 5 5 4 5 6 7 7 6 7 6 7 7 7 7 6 6 6 7 6 5 6 7 7 7 5 4 4 4 4 4 4 4 4 4 6 6
7 7 7 7 7 7 8 7 6 5 5 5 2 1 2 4 3 4 4 5 5 6 5 5 5 4 5 6 6 6 6 7 5 5 6 7 6 7 6 7 7 7 4 3 4 4 4 4 3 4 5 5
7 7 7 7 8 8 8 8 8 7 7 5 5 5 5 4 2 3 3 4 5 5 5 5 5 5 6 6 6 6 6 5 5 4 4 7 6 4 5 6 7 7 6 4 3 4 4 3 4 5 4 4
7 7 8 8 7 9 8 7 8 8 7 6 7 7 6 5 5 4 4 3 2 2 2 3 3 3 3 3 5 6 6 5 6 9 7 7 7 6 2 1 3 4 5 2 1 1 2 2 3 4 4 4
7 7 5 6 6 6 5 5 7 8 7 8 7 8 8 8 8 7 7 6 4 4 3 2 1 1 2 2 2 4 7 8 10 8 8 6 3 7 5 2 3 4 5 5 1 1 2 4 2 3 2 5
7 6 3 5 4 5 6 7 8 7 7 7 7 9 9 8 8 7 7 7 6 6 5 5 4 3 3 1 2 4 0 0 0 2 3 4 3 3 7 6 6 6 6 0 5 3 3 4 5 4 4 5
6 6 7 7 6 5 4 4 3 5 4 6 7 8 8 8 8 8 8 7 7 6 6 5 5 4 4 2 4 4 2 1 4 5 5 5 6 4 2 1 2 6 8 6 3 2 1 4 2 4 5 6
5 5 5 7 7 8 8 4 4 6 8 8 9 9 7 7 7 7 7 8 7 7 6 6 5 3 3 2 2 1 2 2 3 2 2 4 6 3 3 3 5 6 8 4 7 3 6 3 1 6 7 8
7 8 9 8 9 9 9 11 11 10 10 9 8 8 9 8 7 7 7 7 7 7 6 5 5 5 3 2 1 0 1 2 3 2 2 3 3 4 6 6 4 4 6 7 7 6 3 1 2 6 4 2
9 10 10 10 10 9 8 9 9 9 7 8 8 7 5 10 10 10 8 7 6 6 6 6 5 4 5 3 2 0 1 2 1 2 3 4 4 4 4 4 4 4 4 8 8 5 2 4 3 1 2 1
9 10 10 10 9 7 7 6 5 4 5 6 6 8 10 8 10 10 11 11 10 10 9 7 6 6 4 4 4 3 2 2 3 3 3 3 3 5 5 3 5 6 5 4 6 7 8 5 2 2 1 5
Wind_Direction
190 192 190 190 192 194 192 194 195 194 195 195 197 202 197 191 188 184 184 179 176 175 169 169 166 168 171 179 195 212 218 211 203 198 203 123 128 143 144 140 124 102 91 88 87 75 66 67 70 78 89 88
193 193 193 192 193 194 194 194 197 197 197 197 195 195 183 172 180 189 185 185 182 180 175 171 168 172 174 178 186 211 233 227 199 183 124 127 137 146 151 139 113 94 89 87 79 65 57 55 60 67 83 86
198 195 196 194 194 195 193 194 197 198 199 200 197 192 179 177 183 184 184 184 182 174 172 173 171 174 178 181 187 202 204 213 164 176 135 137 144 148 153 144 119 99 92 93 78 65 53 54 59 72 78 78
197 201 198 197 196 198 197 196 196 198 197 199 199 192 177 182 184 181 180 186 185 175 176 177 169 173 176 183 183 182 180 172 178 147 139 144 150 155 152 150 130 109 111 103 84 64 53 57 66 70 74 78
200 201 201 201 200 199 200 199 200 199 196 194 199 190 181 178 182 181 184 185 187 181 176 168 166 169 180 182 177 176 173 180 171 153 147 150 155 154 157 132 118 119 127 110 89 63 52 58 67 87 85 76
203 199 196 203 203 201 201 202 200 201 197 192 190 191 182 181 183 180 184 190 182 179 174 166 168 172 181 178 164 159 173 179 176 168 146 163 160 156 129 110 89 27 52 89 72 57 47 59 73 90 95 88
205 202 194 205 203 202 200 198 197 196 196 189 190 187 183 183 181 182 182 183 180 174 172 169 172 175 177 164 157 159 171 174 179 184 178 176 183 145 123 115 120 132 233 66 48 52 47 61 74 101 95 92
202 203 194 201 203 198 198 196 194 192 188 189 188 182 181 180 173 179 181 180 174 163 168 173 175 177 174 165 157 162 160 177 181 177 183 174 153 119 119 136 149 184 105 70 37 31 41 44 75 105 111 113
204 201 195 197 203 198 195 194 191 192 187 187 185 179 176 177 169 170 176 167 162 168 163 166 175 174 170 156 162 155 158 168 181 156 142 127 112 136 142 151 197 174 136 65 42 356 354 40 85 98 107 114
199 194 201 197 198 201 198 192 191 191 189 185 183 175 176 166 168 168 166 167 166 167 168 171 174 173 163 160 172 159 160 159 147 145 136 129 141 150 153 177 192 193 161 156 191 302 307 270 113 119 115 116
193 202 203 199 195 198 205 194 190 191 189 186 179 174 170 170 176 172 169 173 174 176 174 178 177 173 169 171 173 172 155 164 158 153 148 146 159 151 156 184 240 259 288 192 188 223 210 206 142 135 138 131
195 200 199 200 195 199 199 195 197 194 191 175 176 175 175 181 173 172 177 181 180 181 175 185 181 173 175 170 175 170 166 161 161 156 153 152 153 154 167 186 237 247 231 221 197 171 196 172 149 150 149 151
196 188 196 193 197 204 195 197 199 196 184 178 177 177 177 182 178 177 180 181 186 161 186 180 178 177 184 176 172 161 181 170 164 165 164 164 163 166 174 194 244 233 221 210 193 166 179 168 168 152 149 158
185 189 189 196 198 199 189 202 198 183 183 183 172 181 188 191 186 183 181 182 173 175 183 178 178 181 185 183 174 175 178 180 165 169 163 164 164 169 182 187 229 185 198 203 188 177 164 177 184 174 164 170
195 179 193 195 193 186 193 196 188 186 189 190 183 183 187 192 193 179 178 179 178 183 179 177 177 188 175 185 190 185 181 170 174 166 177 176 174 177 179 203 203 188 185 194 193 189 163 190 186 189 182 170
186 188 194 188 178 188 190 175 181 186 186 193 195 184 185 190 193 179 180 178 179 182 177 179 182 181 181 195 186 186 176 173 170 173 177 173 171 172 169 195 198 211 185 193 207 183 188 176 185 196 185 180
189 177 170 169 187 186 174 177 176 182 188 191 192 184 185 191 192 187 178 185 181 179 178 179 179 184 194 189 182 181 172 165 159 144 146 166 143 158 159 178 212 203 212 189 214 199 204 176 203 204 180 195
170 176 165 163 166 166 168 177 178 190 192 190 190 189 190 190 193 191 189 176 181 174 173 179 185 186 191 188 180 170 157 168 166 163 158 172 152 188 184 199 205 190 212 231 209 205 199 187 201 191 201 194
90 112 135 151 153 161 170 175 185 190 186 189 196 191 197 196 195 197 191 183 175 179 174 176 186 191 195 179 171 174 176 164 169 163 176 157 176 178 217 215 203 203 210 200 214 215 194 201 202 193 202 201
78 84 85 92 118 143 154 160 175 175 183 185 183 190 196 198 197 197 192 183 178 177 181 181 186 196 177 176 168 175 170 161 173 176 171 181 166 170 216 206 241 248 223 217 220 227 214 213 196 201 207 205
56 56 57 51 48 46 50 52 56 71 98 127 163 175 187 189 190 188 174 176 182 179 182 184 188 187 181 169 171 170 174 182 179 170 175 180 187 180 184 191 209 222 229 232 240 242 233 230 209 207 209 211
53 59 63 58 58 56 53 44 36 31 42 34 31 74 165 174 165 157 157 165 175 184 188 189 183 161 163 164 167 170 172 191 167 171 172 186 197 187 169 190 193 206 204 213 240 255 250 252 243 234 226 229
46 45 52 59 50 51 47 42 42 37 42 31 41 35 24 23 49 106 129 154 160 162 165 167 163 164 177 173 170 170 177 167 168 169 186 187 193 201 202 189 195 188 174 187 211 237 261 284 252 249 243 245
35 47 45 44 36 40 31 40 43 37 38 31 37 22 29 43 50 41 43 50 69 102 135 157 168 173 150 169 159 162 166 172 175 189 188 203 183 186 186 103 157 130 132 80 68 313 314 304 306 276 264 257
32 32 24 39 46 62 40 47 53 47 32 41 34 32 35 33 29 33 37 29 32 45 52 45 59 101 128 133 184 194 198 192 194 194 190 177 166 171 176 199 145 166 138 134 155 354 326 309 301 285 293 261
38 23 34 71 61 73 46 48 54 52 36 39 39 37 33 27 28 42 50 40 40 38 36 37 30 20 10 13 231 223 247 134 300 144 159 144 165 211 185 203 179 173 126 215 192 188 277 313 297 279 292 267
28 16 28 42 25 29 62 52 60 84 70 49 50 44 35 29 26 24 24 33 42 47 42 49 49 35 35 25 1 338 308 194 188 192 189 180 190 197 270 229 162 176 196 179 132 105 73 283 297 309 276 260
28 46 52 51 51 43 57 34 11 39 38 34 41 35 28 34 29 28 28 23 26 36 40 41 47 40 54 48 42 14 323 329 299 271 220 202 216 176 185 214 223 202 204 145 136 254 212 230 145 302 261 243
36 40 39 32 40 39 31 25 24 25 19 17 20 19 17 9 16 26 31 23 28 32 32 42 39 40 36 33 43 46 318 285 255 271 281 279 258 210 210 221 226 218 214 224 220 170 95 2 278 231 254 355
41 49 53 48 45 38 35 33 22 23 10 15 24 21 11 20 19 11 9 20 23 27 28 25 37 41 37 26 11 32 238 252 288 262 237 231 234 253 262 258 222 252 233 232 242 245 220 145 180 222 268 67
39 47 49 58 63 63 57 59 18 358 7 21 13 34 31 24 25 25 23 13 14 10 10 12 18 28 38 31 25 13 359 313 275 262 235 227 215 232 239 250 251 230 238 243 257 260 258 262 189 155 124 246